Date String (YYYY-MM-DD hh:mm:ss) UTC,Instrument flags,absolute air pressure of the measurement (hPa),sample flow rate (lpm),inlet stack bypass flow (lpm),air temperature of the measurement (°C),ambient temperature measured by the external sensor (°C),aerosol sample conditioner tube jacket temperature (°C),OPC LED temperature (°C),internal box temperature (°C),relative humidity of the measurement (%),span deviation,mass concentration of particles derived from Lorenz-Mie calculation of OPC scattering (μg/m³),mass concentration of particles derived from Lorenz-Mie calculation of OPC scattering (μg/m³),mass concentration of particles derived from Lorenz-Mie calculation of OPC scattering (μg/m³)
DateTimeUTC,F1_M11,P_M11,Q1_M11,Q2_M11,T1_M11,T2_M11,T3_M11,T4_M11,T5_M11,U1_M11,ZSPAN_M11,X2_M11,X0_M11,X1_M11
2023-06-13 00:00:00,SystemResetWarning,0829.2,4.99,000.00,030.1,028.6,000.0,038.6,031.6,25.7,0000.0,0002.82,0005.40,0002.12
2023-06-13 00:01:00,SystemResetWarning,0829.2,4.98,000.00,030.1,028.6,000.0,038.6,031.6,25.8,0000.0,0002.83,0005.37,0002.11
2023-06-13 00:02:00,SystemResetWarning,0829.2,5.00,000.00,030.1,028.6,000.0,038.6,031.5,25.4,0000.0,0002.85,0005.41,0002.09
2023-06-13 00:03:00,SystemResetWarning,0829.2,5.00,000.00,030.1,028.6,000.0,038.6,031.5,24.5,0000.0,0002.81,0005.20,0002.08
2023-06-13 00:04:00,SystemResetWarning,0829.2,5.00,000.00,030.1,028.6,000.0,038.6,031.5,25.5,0000.0,0002.80,0005.00,0002.10
2023-06-13 00:05:00,SystemResetWarning,0829.2,5.01,000.00,030.1,028.6,000.0,038.6,031.5,26.1,0000.0,0002.78,0004.89,0002.11
2023-06-13 00:06:00,SystemResetWarning,0829.3,5.01,000.00,030.1,028.6,000.0,038.6,031.5,25.3,0000.0,0002.76,0004.72,0002.10
2023-06-13 00:07:00,SystemResetWarning,0829.2,5.00,000.00,030.1,028.6,000.0,038.6,031.6,25.7,0000.0,0002.72,0004.63,0002.08
2023-06-13 00:08:00,SystemResetWarning,0829.2,5.00,000.00,030.1,028.6,000.0,038.6,031.6,25.4,0000.0,0002.68,0004.56,0002.07
2023-06-13 00:09:00,SystemResetWarning,0829.2,5.00,000.00,030.1,028.6,000.0,038.6,031.6,25.0,0000.0,0002.65,0004.45,0002.05
2023-06-13 00:10:00,SystemResetWarning,0829.2,4.99,000.00,030.1,028.6,000.0,038.6,031.6,24.3,0000.0,0002.58,0003.98,0002.04
2023-06-13 00:11:00,SystemResetWarning,0829.3,5.00,000.00,030.1,028.6,000.0,038.6,031.5,24.0,0000.0,0002.58,0004.02,0002.04
2023-06-13 00:12:00,SystemResetWarning,0829.2,5.00,000.00,030.1,028.6,000.0,038.6,031.5,23.8,0000.0,0002.57,0004.34,0002.03
2023-06-13 00:13:00,SystemResetWarning,0829.3,4.99,000.00,030.1,028.6,000.0,038.6,031.6,23.9,0000.0,0002.54,0004.69,0002.02
2023-06-13 00:14:00,SystemResetWarning,0829.3,5.02,000.00,030.1,028.6,000.0,038.6,031.6,23.7,0000.0,0002.54,0005.27,0002.02
2023-06-13 00:15:00,SystemResetWarning,0829.4,5.01,000.00,030.1,028.6,000.0,038.6,031.6,23.6,0000.0,0002.58,0005.55,0002.01
2023-06-13 00:16:00,SystemResetWarning,0829.4,5.00,000.00,030.1,028.6,000.0,038.7,031.6,24.0,0000.0,0002.57,0005.59,0002.00
2023-06-13 00:17:00,SystemResetWarning,0829.4,4.99,000.00,030.1,028.6,000.0,038.7,031.6,24.2,0000.0,0002.59,0005.75,0002.00
2023-06-13 00:18:00,SystemResetWarning,0829.4,5.00,000.00,030.1,028.6,000.0,038.7,031.6,23.9,0000.0,0002.63,0006.28,0002.01
2023-06-13 00:19:00,SystemResetWarning,0829.3,4.99,000.00,030.1,028.7,000.0,038.7,031.6,24.1,0000.0,0002.66,0006.28,0002.02
2023-06-13 00:20:00,SystemResetWarning,0829.4,5.00,000.00,030.1,028.7,000.0,038.7,031.6,23.9,0000.0,0002.67,0006.22,0002.03
2023-06-13 00:21:00,SystemResetWarning,0829.3,5.01,000.00,030.2,028.7,000.0,038.7,031.6,23.8,0000.0,0002.67,0006.10,0002.03
2023-06-13 00:22:00,SystemResetWarning,0829.3,5.00,000.00,030.2,028.7,000.0,038.7,031.6,24.1,0000.0,0002.74,0006.25,0002.04
2023-06-13 00:23:00,SystemResetWarning,0829.4,5.00,000.00,030.2,028.7,000.0,038.7,031.6,23.6,0000.0,0002.75,0005.96,0002.05
2023-06-13 00:24:00,SystemResetWarning,0829.4,5.01,000.00,030.2,028.7,000.0,038.7,031.6,24.4,0000.0,0002.77,0005.83,0002.06
2023-06-13 00:25:00,SystemResetWarning,0829.5,5.01,000.00,030.2,028.7,000.0,038.7,031.7,25.2,0000.0,0002.78,0005.52,0002.05
2023-06-13 00:26:00,SystemResetWarning,0829.5,5.00,000.00,030.2,028.7,000.0,038.7,031.7,24.3,0000.0,0002.71,0007.30,0002.05
2023-06-13 00:27:00,SystemResetWarning,0829.5,4.99,000.00,030.2,028.7,000.0,038.7,031.7,24.4,0000.0,0002.69,0007.46,0002.04
2023-06-13 00:28:00,SystemResetWarning,0829.6,5.00,000.00,030.2,028.7,000.0,038.7,031.7,24.7,0000.0,0002.68,0007.35,0002.04
2023-06-13 00:29:00,SystemResetWarning,0829.6,5.00,000.00,030.2,028.7,000.0,038.7,031.7,24.8,0000.0,0002.62,0006.88,0002.03
2023-06-13 00:30:00,SystemResetWarning,0829.5,5.01,000.00,030.2,028.7,000.0,038.7,031.7,25.0,0000.0,0002.59,0007.06,0002.01
2023-06-13 00:31:00,SystemResetWarning,0829.5,4.99,000.00,030.2,028.7,000.0,038.7,031.7,25.6,0000.0,0002.60,0007.53,0001.99
2023-06-13 00:32:00,SystemResetWarning,0829.5,5.00,000.00,030.2,028.7,000.0,038.7,031.7,24.6,0000.0,0002.64,0007.66,0001.98
2023-06-13 00:33:00,SystemResetWarning,0829.5,5.01,000.00,030.2,028.8,000.0,038.8,031.7,24.6,0000.0,0002.60,0007.64,0001.98
2023-06-13 00:34:00,SystemResetWarning,0829.5,5.01,000.00,030.2,028.8,000.0,038.8,031.8,24.9,0000.0,0002.57,0007.91,0001.97
2023-06-13 00:35:00,SystemResetWarning,0829.5,4.99,000.00,030.2,028.8,000.0,038.8,031.7,25.0,0000.0,0002.54,0008.10,0001.96
2023-06-13 00:36:00,SystemResetWarning,0829.5,4.99,000.00,030.2,028.8,000.0,038.8,031.8,24.4,0000.0,0002.52,0007.95,0001.95
2023-06-13 00:37:00,SystemResetWarning,0829.5,5.00,000.00,030.3,028.8,000.0,038.8,031.7,24.7,0000.0,0002.58,0006.31,0001.96
2023-06-13 00:38:00,SystemResetWarning,0829.4,5.01,000.00,030.3,028.8,000.0,038.8,031.8,25.0,0000.0,0002.61,0006.16,0001.97
2023-06-13 00:39:00,SystemResetWarning,0829.5,5.00,000.00,030.3,028.8,000.0,038.8,031.8,25.6,0000.0,0002.59,0007.01,0001.96
2023-06-13 00:40:00,SystemResetWarning,0829.5,5.00,000.00,030.3,028.8,000.0,038.8,031.8,25.1,0000.0,0002.58,0007.08,0001.96
2023-06-13 00:41:00,SystemResetWarning,0829.6,5.00,000.00,030.3,028.8,000.0,038.8,031.8,25.9,0000.0,0002.59,0006.98,0001.96
2023-06-13 00:42:00,SystemResetWarning,0829.6,5.00,000.00,030.3,028.8,000.0,038.8,031.8,25.2,0000.0,0002.64,0006.38,0001.98
2023-06-13 00:43:00,SystemResetWarning,0829.6,4.98,000.00,030.3,027.6,000.0,038.8,031.9,25.8,0000.0,0002.58,0006.05,0002.00
2023-06-13 00:44:00,SystemResetWarning,0829.6,5.02,000.00,030.3,025.6,000.0,038.7,031.8,26.3,0000.0,0002.60,0005.99,0002.00
2023-06-13 00:45:00,SystemResetWarning,0829.6,5.01,000.00,030.3,025.2,000.0,038.7,031.6,26.3,0000.0,0002.57,0006.24,0001.98
2023-06-13 00:46:00,SystemResetWarning,0829.6,5.00,000.00,030.1,025.4,000.0,038.7,031.4,27.0,0000.0,0002.61,0006.23,0001.99
2023-06-13 00:47:00,SystemResetWarning,0829.5,5.00,000.00,030.0,025.8,000.0,038.6,031.2,27.4,0000.0,0002.63,0006.26,0002.00
2023-06-13 00:48:00,SystemResetWarning,0829.5,5.00,000.00,030.0,026.2,000.0,038.6,031.2,27.0,0000.0,0002.59,0006.17,0002.00
2023-06-13 00:49:00,SystemResetWarning,0829.5,5.01,000.00,029.9,026.6,000.0,038.6,031.2,26.8,0000.0,0002.54,0006.06,0001.99
2023-06-13 00:50:00,SystemResetWarning,0829.5,4.99,000.00,029.9,027.0,000.0,038.6,031.3,25.1,0000.0,0002.49,0005.21,0001.98
2023-06-13 00:51:00,SystemResetWarning,0829.5,4.99,000.00,029.9,027.3,000.0,038.6,031.3,24.4,0000.0,0002.50,0004.95,0001.98
2023-06-13 00:52:00,SystemResetWarning,0829.5,5.01,000.00,029.9,027.5,000.0,038.6,031.3,24.4,0000.0,0002.47,0004.90,0001.97
2023-06-13 00:53:00,SystemResetWarning,0829.5,5.01,000.00,029.9,027.7,000.0,038.5,031.4,24.4,0000.0,0002.42,0004.75,0001.96
2023-06-13 00:54:00,SystemResetWarning,0829.6,5.01,000.00,029.9,027.8,000.0,038.5,031.4,24.3,0000.0,0002.42,0004.80,0001.95
2023-06-13 00:55:00,SystemResetWarning,0829.6,5.00,000.00,029.9,027.9,000.0,038.5,031.4,24.6,0000.0,0002.43,0004.93,0001.95
2023-06-13 00:56:00,SystemResetWarning,0829.6,4.99,000.00,029.9,028.0,000.0,038.5,031.4,24.9,0000.0,0002.42,0004.55,0001.95
2023-06-13 00:57:00,SystemResetWarning,0829.6,5.00,000.00,029.9,028.1,000.0,038.5,031.4,24.9,0000.0,0002.41,0003.59,0001.96
2023-06-13 00:58:00,SystemResetWarning,0829.6,5.00,000.00,029.9,028.2,000.0,038.5,031.4,25.1,0000.0,0002.39,0003.53,0001.95
2023-06-13 00:59:00,SystemResetWarning,0829.6,4.99,000.00,029.9,028.2,000.0,038.5,031.4,25.3,0000.0,0002.39,0003.60,0001.92
